Notices

What's New in latest Release from April 7th, 2021:

- Updated Glossary, including Speed of Maximum Gust, and Total Hourly Precipitation

- Updated national and regional climate services offices contacts and prices information

- Addition of station inventory lists for 1981-2010, 1971-2000, and 1961-1990 Normals.

If you haven't already, please take our survey and provide feedback about our website: https://eccc.sondage-survey.ca/f/LanguageSelection.aspx?s=442ca660-fcf1-47c0-95a9-59707d6fd709

Hourly Data Report for September 14, 2017

VICTORIA UNIVERSITY CS
BRITISH COLUMBIA

48°27'25.200" N
123°18'16.600" W
60.10 m
1018598
71783
WYJ

Download Data

Hourly Data (September 2017)
Hourly Data Report for September 14, 2017
TIME
LST
Temp Definition
°C
Dew Point Definition
°C
Rel Hum Definition
%
Precip. Amount Definition
mm

Wind Dir Definition
10's deg

Wind Spd Definition
km/h
Visibility Definition
km
Stn Press Definition
kPa
Hmdx Definition


Wind Chill Definition


Weather Definition


00:00 14.5 6.7 60 0.0 31 8   100.60     LegendNANA
01:00 15.8 5.5 50 0.0 32 8   100.60     LegendNANA
02:00 15.7 4.7 48 0.0 34 6   100.62     LegendNANA
03:00 15.3 4.5 49 0.0 36 6   100.66     LegendNANA
04:00 14.4 4.8 52 0.0 34 5   100.68     LegendNANA
05:00 14.6 4.2 50 0.0 32 7   100.70     LegendNANA
06:00 14.4 3.7 49 0.0 32 7   100.75     LegendNANA
07:00 15.8 3.9 45 0.0 34 9   100.80     LegendNANA
08:00 17.6 3.8 40 0.0 34 11   100.82     LegendNANA
09:00 19.2 3.4 35 0.0 34 12   100.84     LegendNANA
10:00 19.9 2.9 32 0.0 1 11   100.85     LegendNANA
11:00 20.7 1.3 27 0.0 36 13   100.84     LegendNANA
12:00 21.4 1.6 27 0.0 2 11   100.81     LegendNANA
13:00 22.0 1.0 25 0.0 2 8   100.81     LegendNANA
14:00 23.7 -0.9 20 0.0 35 8   100.78     LegendNANA
15:00 23.8 -3.3 16 0.0 35 10   100.74     LegendNANA
16:00 23.6 -2.7 17 0.0 32 11   100.72     LegendNANA
17:00 22.2 0.6 24 0.0 25 5   100.73     LegendNANA
18:00 19.3 0.5 28 0.0 25 5   100.75     LegendNANA
19:00 16.3 0.7 35 0.0 26 5   100.77     LegendNANA
20:00 14.1 1.5 42 0.0 29 6   100.80     LegendNANA
21:00 12.9 1.6 46 0.0 26 2   100.82     LegendNANA
22:00 12.7 2.4 50 0.0 24 2   100.84     LegendNANA
23:00 11.8 2.2 52 0.0 25 3   100.87     LegendNANA

Notes on Data Quality.

Legend

  • E = Estimated
  • M = Missing
  • NA = Not Available*
  • [empty] = Indicates an unobserved value
Date modified: